Location: Prescott
(34.5400°N, 112.4680°W)
Time: 13:18:18
(UTC-07:00)

OTV 5 (USA 277) - Visible Passes

Search period start: 17 February 2019 00:00
Search period end: 27 February 2019 00:00
Orbit: 342 x 346 km, 54.5° (Epoch: 09 February)

Date Brightness Start Highest point End Pass type
(mag) Time Alt. Az. Time Alt. Az. Time Alt. Az.
17 Feb ? 05:13:55 20° E 05:13:55 20° E 05:15:15 10° ESE visible
17 Feb ? 06:45:47 10° W 06:47:28 15° SW 06:49:09 10° SSW visible
18 Feb ? 05:37:30 34° SSE 05:37:30 34° SSE 05:39:18 10° SE visible
19 Feb ? 06:01:14 12° SSW 06:01:14 12° SSW 06:01:42 10° SSW visible
20 Feb ? 19:35:22 10° S 19:35:58 13° SSE 19:35:58 13° SSE visible
21 Feb ? 19:58:11 10° SW 19:59:51 31° SW 19:59:51 31° SW visible
22 Feb ? 18:47:52 10° S 18:50:00 19° SE 18:52:08 10° ENE visible
22 Feb ? 20:22:30 10° W 20:23:36 17° WNW 20:23:36 17° WNW visible
23 Feb ? 19:10:36 10° SW 19:13:29 89° E 19:15:45 15° NE visible
24 Feb ? 19:34:52 10° W 19:37:12 22° NW 19:39:14 12° N visible
26 Feb ? 18:47:14 10° W 18:49:37 23° NW 18:52:01 10° NNE visible
